This demonstration page uses our WeatherBlox Daily Observations layout. Learn more.

Left ArrowRight Arrow

Hourly Observations for May 30, 2018

Temp ( °F °C ) Dew Point ( °F °C ) Humidity (%) Winds ( mph kmh ) Pressure ( in mb ) Visibility ( mi km ) Precip ( " mm )
12:53 am 00:53 Clear 61 16.1 60 15.6 97 97 SSE 3 6 29.77 1008 10 16 0.00 0.00
1:53 am 01:53 Clear 60 15.6 60 15.6 100 100 SE 3 6 29.76 1008 9 14 0.00 0.00
2:53 am 02:53 Mostly Clear with Mist and Fog 59 15 59 15 100 100 SSW 6 9 29.76 1008 5 8 0.00 0.00
3:12 am 03:12 Partly Cloudy with Mist and Fog 59 15 59 15 100 100 SW 7 11 29.74 1007 6 10 0.00 0.00
3:53 am 03:53 Mostly Clear 59 15 59 15 100 100 SW 6 9 29.74 1007 7 11 0.00 0.00
4:53 am 04:53 Clear 59 15 59 15 100 100 SSW 6 9 29.73 1007 8 13 0.00 0.00
5:53 am 05:53 Clear with Mist and Fog 58 14.4 58 14.4 100 100 SW 6 9 29.73 1007 6 10 0.00 0.00
6:53 am 06:53 Sunny with Mist and Fog 58 14.4 58 14.4 100 100 SSW 8 13 29.73 1007 5 8 0.00 0.00
7:01 am 07:01 Partly Cloudy with Mist and Fog 58 14.4 58 14.4 100 100 SSW 7 11 29.74 1007 4 6 0.00 0.00
7:05 am 07:05 Mostly Cloudy with Mist and Fog 58 14.4 58 14.4 100 100 SSW 9 15 29.74 1007 2 3 0.00 0.00
7:15 am 07:15 Mostly Cloudy with Fog 58 14.4 58 14.4 100 100 SSW 9 15 29.74 1007 1 1 0.00 0.00
7:30 am 07:30 Cloudy with Mist and Fog 59 15 59 15 100 100 SW 8 13 29.71 1006 2 3 0.00 0.00
7:38 am 07:38 Mostly Cloudy with Mist and Fog 59 15 59 15 100 100 SW 8 13 29.71 1006 5 8 0.00 0.00
7:50 am 07:50 Partly Cloudy 61 16 61 16 100 100 SW 7 11 29.68 1005 8 13 0.00 0.00
7:53 am 07:53 Mostly Sunny 60 15.6 60 15.6 100 100 WSW 9 15 29.73 1007 9 14 0.00 0.00
8:53 am 08:53 Sunny 63 17.2 61 16.1 93 93 WSW 14 22 29.72 1007 10 16 0.00 0.00
9:53 am 09:53 Sunny 66 18.9 60 15.6 81 81 W 15 24 29.72 1007 10 16 0.00 0.00
10:53 am 10:53 Sunny 72 22.2 61 16.1 68 68 W 16 26 29.71 1006 10 16 0.00 0.00
11:53 am 11:53 Sunny 75 23.9 61 16.1 62 62 W 13 20 29.71 1006 10 16 0.00 0.00
12:53 pm 12:53 Sunny 78 25.6 60 15.6 54 54 W 17 28 29.70 1006 10 16 0.00 0.00
1:53 pm 13:53 Sunny 80 26.7 61 16.1 52 52 W 14 22 29.69 1006 10 16 0.00 0.00
2:53 pm 14:53 Sunny 82 27.8 62 16.7 51 51 WNW 16 26 29.68 1005 10 16 0.00 0.00
3:53 pm 15:53 Sunny 83 28.3 61 16.1 48 48 WNW 16 26 29.67 1005 10 16 0.00 0.00
4:53 pm 16:53 Mostly Sunny 84 28.9 60 15.6 44 44 NW 13 20 29.66 1004 10 16 0.00 0.00
5:53 pm 17:53 Sunny 85 29.4 60 15.6 43 43 W 10 17 29.65 1004 10 16 0.00 0.00
6:53 pm 18:53 Sunny 85 29.4 59 15 42 42 W 8 13 29.64 1004 10 16 0.00 0.00
7:53 pm 19:53 Sunny 83 28.3 59 15 44 44 W 8 13 29.65 1004 10 16 0.00 0.00
8:53 pm 20:53 Sunny 77 25 62 16.7 60 60 WSW 6 9 29.67 1005 10 16 0.00 0.00
9:53 pm 21:53 Clear 74 23.3 61 16.1 64 64 SW 3 6 29.69 1005 10 16 0.00 0.00
10:53 pm 22:53 Clear 72 22.2 60 15.6 66 66 SW 6 9 29.70 1006 10 16 0.00 0.00
11:53 pm 23:53 Clear 71 21.7 59 15 66 66 SW 5 7 29.70 1006 10 16 0.00 0.00

Powered by AerisWeather